User: anonymous   Login
Location: ???? ?????????
(31.1304°N, 31.7111°E)
Time: 23:23:26
(UTC+00:00)
Language:

Cosmos 1386 Rocket - Orbit

View from above orbital plane
View from above orbital plane
View from above satellite
View from above satellite

Ground track
Ground track

The orbit data is extracted from the following two-line orbital elements,

1 13354U 82069B   21018.42964833  .00000059  00000-0  41668-4 0  9995
2 13354  82.9591  85.7664 0052892  49.1336 311.4387 13.78907036938236
Epoch (UTC): 18 January 2021 10:18:41
Eccentricity: 0.0052892
inclination: 82.9591°
perigee height: 929 km
apogee height: 1006 km
right ascension of ascending node: 85.7664°
argument of perigee: 49.1336°
revolutions per day: 13.78907036
mean anomaly at epoch: 311.4387°
orbit number at epoch: 93823

The dashed part of the orbit path shows where the satellite is in the earth's shadow,  

DLR